Location: Gokavaram
(16.9752°N, 81.0696°E)
Time: 13:17:54
(UTC+00:00)

CZ-4C R/B - Pass Details

Date: 15 May 2026
Orbit: 473 x 1503 km, 63.4° (Epoch: 11 June)

Event Time Altitude Azimuth Distance (km) Brightness Sun altitude
Rises 23:00:58 0° 335° (NNW) 4,181 5.8 -14.8°
Reaches altitude 10° 23:03:36 10° 335° (NNW) 3,325 5.3 -14.2°
Maximum altitude 23:12:05 89° 245° (WSW) 1,461 3.4 -12.4°
Drops below altitude 10° 23:21:25 10° 157° (SSE) 3,642 5.5 -10.3°
Sets 23:24:25 0° 157° (SSE) 4,594 6.0 -9.7°
